EW2898 Weather Reports


time (UTC)temp
C
wind
direction
speed
KPH
gust
KPH
rain 1hr
cm
rain 24hr
cm
rain mn
cm
humidity
%
barometer
mb
20260503212017 16 0 0.0 0.0 0.00 0.00 0.00 99 1021.5
20260503210903 16 0 0.0 0.0 0.00 0.00 0.00 99 1021.6
20260503210003 15 0 0.0 0.0 0.00 0.00 0.00 99 1021.4
20260503205404 15 0 0.0 0.0 0.00 0.00 0.00 99 1021.3
20260503204716 15 0 0.0 0.0 0.00 0.00 0.00 99 1021.3
20260503203603 15 0 0.0 0.0 0.00 0.00 0.00 99 1021.2
20260503202703 15 0 0.0 0.0 0.00 0.00 0.00 99 1021.2
20260503201803 15 0 0.0 0.0 0.00 0.00 0.00 99 1021.5
20260503200903 16 0 0.0 0.0 0.00 0.00 0.00 99 1021.2
20260503200003 16 0 0.0 0.0 0.00 0.00 0.00 99 1021.1
20260503195617 16 0 0.0 0.0 0.00 0.00 0.00 99 1021.2
20260503194503 15 0 0.0 0.0 0.00 0.00 0.00 99 1021.0
20260503193603 16 0 0.0 0.0 0.00 0.00 0.00 99 1020.9
20260503192703 16 0 0.0 0.0 0.00 0.00 0.00 99 1020.9
20260503191803 16 0 0.0 0.0 0.00 0.00 0.00 99 1020.7
20260503190903 16 0 0.0 0.0 0.00 0.00 0.00 99 1020.6
20260503190003 16 0 0.0 0.0 0.00 0.00 0.00 99 1020.5
20260503185403 17 0 0.0 0.0 0.00 0.00 0.00 99 1020.6
20260503184503 16 0 0.0 0.0 0.00 0.00 0.00 99 1020.5
20260503183603 16 0 0.0 0.0 0.00 0.00 0.00 99 1020.5
20260503182916 17 0 0.0 0.0 0.00 0.00 0.00 99 1020.3
20260503181804 17 0 0.0 0.0 0.00 0.00 0.00 99 1020.4
20260503180903 17 0 0.0 0.0 0.00 0.00 0.00 99 1020.5
20260503180219 17 0 0.0 0.0 0.00 0.00 0.00 99 1020.4
20260503175618 17 0 0.0 0.0 0.00 0.00 0.00 99 1020.4
20260503174503 17 0 0.0 0.0 0.00 0.00 0.00 99 1020.2
20260503173603 18 0 0.0 0.0 0.00 0.00 0.00 99 1020.6
20260503172703 17 0 0.0 0.0 0.00 0.00 0.00 99 1020.3
20260503171804 17 0 0.0 0.0 0.00 0.00 0.00 99 1020.6
20260503170903 17 0 0.0 0.0 0.00 0.00 0.00 99 1020.6
20260503150903 21 0 0.0 0.0 0.00 0.00 0.00 99 1022.4
20260503150217 21 0 0.0 0.0 0.00 0.00 0.00 99 1022.9
20260503130903 21 0 0.0 0.0 0.00 0.00 0.00 99 1025.4
20260503081117 16 0 0.0 0.0 0.00 0.00 0.00 99 1026.5
20260503072703 15 0 0.0 0.0 0.00 0.00 0.00 99 1026.3
20260503071803 15 0 0.0 0.0 0.00 0.00 0.00 99 1025.9
20260503070903 14 0 0.0 0.0 0.00 0.00 0.00 99 1025.7
20260503054503 11 0 0.0 0.0 0.00 0.00 0.00 99 1023.4
20260503053603 11 0 0.0 0.0 0.00 0.00 0.00 99 1023.1
20260503052917 11 0 0.0 0.0 0.00 0.00 0.00 99 1022.8
20260503051804 10 0 0.0 0.0 0.00 0.00 0.00 99 1022.7
20260503050903 10 0 0.0 0.0 0.00 0.00 0.00 99 1022.7
20260503050003 10 0 0.0 0.0 0.00 0.00 0.00 99 1023.0
20260503045403 10 0 0.0 0.0 0.00 0.00 0.00 99 1022.7
20260503044503 10 0 0.0 0.0 0.00 0.00 0.00 99 1022.5
20260503043818 10 0 0.0 0.0 0.00 0.00 0.00 99 1022.5
20260503042703 9 0 0.0 0.0 0.00 0.00 0.00 99 1022.5
20260503041803 9 0 0.0 0.0 0.00 0.00 0.00 99 1022.3
20260503040903 9 0 0.0 0.0 0.00 0.00 0.00 99 1022.2
20260503040003 9 0 0.0 0.0 0.00 0.00 0.00 99 1022.1
20260503035403 10 0 0.0 0.0 0.00 0.00 0.00 99 1022.0
20260503034503 9 0 0.0 0.0 0.00 0.00 0.00 99 1021.9
20260503033603 9 0 0.0 0.0 0.00 0.00 0.00 99 1022.2
20260503032703 9 0 0.0 0.0 0.00 0.00 0.00 99 1021.8
20260503031803 9 0 0.0 0.0 0.00 0.00 0.00 99 1021.8
20260503031118 9 0 0.0 0.0 0.00 0.00 0.00 99 1022.0
20260503030217 9 0 0.0 0.0 0.00 0.00 0.00 99 1021.9
20260503025616 9 0 0.0 0.0 0.00 0.00 0.00 99 1022.0
20260503024503 9 0 0.0 0.0 0.00 0.00 0.00 99 1022.0
20260503023603 10 0 0.0 0.0 0.00 0.00 0.00 99 1022.2
20260503022916 10 0 0.0 0.0 0.00 0.00 0.00 99 1022.2
20260503022018 10 0 0.0 0.0 0.00 0.00 0.00 99 1022.2
20260503020904 10 0 0.0 0.0 0.00 0.00 0.00 99 1022.4
20260503020003 10 0 0.0 0.0 0.00 0.00 0.00 99 1022.3
20260503015403 10 0 0.0 0.0 0.00 0.00 0.00 99 1022.3
20260503014503 10 0 0.0 0.0 0.00 0.00 0.00 99 1022.3
20260503013817 10 0 0.0 0.0 0.00 0.00 0.00 99 1022.2
20260503012703 10 0 0.0 0.0 0.00 0.00 0.00 99 1022.4
20260503011803 10 0 0.0 0.0 0.00 0.00 0.00 99 1022.3
20260503010903 11 0 0.0 0.0 0.00 0.00 0.00 99 1022.7
20260503010003 11 0 0.0 0.0 0.00 0.00 0.00 99 1022.5
20260503005403 11 0 0.0 0.0 0.00 0.00 0.00 99 1022.4
20260503004503 11 0 0.0 0.0 0.00 0.00 0.00 99 1022.7
20260503003603 11 0 0.0 0.0 0.00 0.00 0.00 99 1022.8
20260503002703 12 0 0.0 0.0 0.00 0.00 0.00 99 1023.2
20260503002017 12 0 0.0 0.0 0.00 0.00 0.00 99 1023.1
20260503000903 12 0 0.0 0.0 0.00 0.00 0.00 99 1023.1
20260503000003 11 0 0.0 0.0 0.00 0.00 0.00 99 1023.1
20260502235403 12 0 0.0 0.0 0.00 0.00 0.00 99 1023.3
20260502234503 12 0 0.0 0.0 0.00 0.00 0.00 99 1023.2
20260502233818 12 0 0.0 0.0 0.00 0.00 0.00 99 1023.3
20260502232703 13 0 0.0 0.0 0.00 0.00 0.00 99 1023.5
20260502231803 13 0 0.0 0.0 0.00 0.00 0.00 99 1023.2
20260502230903 13 0 0.0 0.0 0.00 0.00 0.00 99 1023.4
20260502230003 13 0 0.0 0.0 0.00 0.00 0.00 99 1023.4
20260502225403 13 0 0.0 0.0 0.00 0.00 0.00 99 1023.5
20260502224718 13 0 0.0 0.0 0.00 0.00 0.00 99 1023.5
20260502223603 13 0 0.0 0.0 0.00 0.00 0.00 99 1023.4
20260502222703 13 0 0.0 0.0 0.00 0.00 0.00 99 1023.5
20260502221803 13 0 0.0 0.0 0.00 0.00 0.00 99 1023.5
20260502220903 15 0 0.0 0.0 0.00 0.00 0.00 99 1023.3
20260502220004 15 0 0.0 0.0 0.00 0.00 0.00 99 1023.6
20260502215403 15 0 0.0 0.0 0.00 0.00 0.00 99 1023.6
20260502214503 14 0 0.0 0.0 0.00 0.00 0.00 99 1023.3
20260502213817 15 0 0.0 0.0 0.00 0.00 0.00 99 1023.4
20260502212916 15 0 0.0 0.0 0.00 0.00 0.00 99 1023.5